Zurück zum Katalog

ONEWEB-0222

AktivKommunikationPO
NORAD 48775·PAYLOAD·🇬🇧 United Kingdom

Gestartet May 28, 2021 von Vostochny Cosmodrome

Loading…

Nächste Überflüge (nächste 24 Stunden)

TLE

AktuellSource: CelesTrak SupGP

Epoche: Sep 14, 2026, 19:25 UTC

1 48775C 21045J   26257.80918238  .00003661  00000+0  97372-2 0  2576
2 48775  87.8988 241.3203 0002001  79.2433 343.5690 13.15545121    16

Verfolge ONEWEB-0222 in Echtzeit mit AllMySat

Download on the App Store